RYR73EW LEPA-LIPH

Flight info

Callsign RYR73EW
Flight time 1h 28m
Altitude 34000
Route MEROS DCT OSPOK DCT ZETCO DCT TORTU DCT VABOK DCT ALBET
Aircraft A320/M-SDE3FGHIRWY/LB1

Departure

Time 2026-04-22 16:05
Airport Palma de Mallorca Airport (LEPA)

Arrival

Time 2026-04-22 17:33
Airport Treviso Airport (LIPH)
Time Latitude Longitude Altitude Speed Heading
2026-04-22 16:05 39.53463 2.68399 1913 ft 163 kts 240°
2026-04-22 16:05 39.52834 2.67078 2217 ft 183 kts 241°
2026-04-22 16:05 39.52139 2.65598 2521 ft 203 kts 239°
2026-04-22 16:06 39.51202 2.64111 2759 ft 228 kts 215°
2026-04-22 16:06 39.49634 2.63488 3130 ft 252 kts 178°
2026-04-22 16:06 39.47958 2.64289 3643 ft 269 kts 140°
2026-04-22 16:06 39.46905 2.66296 4367 ft 276 kts 108°
2026-04-22 16:07 39.46521 2.68756 5130 ft 282 kts 95°
2026-04-22 16:07 39.46398 2.71296 5961 ft 284 kts 92°
2026-04-22 16:07 39.46330 2.73866 6761 ft 288 kts 91°
2026-04-22 16:07 39.46247 2.76467 7556 ft 291 kts 92°
2026-04-22 16:08 39.46101 2.79099 8344 ft 295 kts 94°
2026-04-22 16:08 39.45918 2.81760 9115 ft 299 kts 94°
2026-04-22 16:08 39.45717 2.84461 9868 ft 304 kts 94°
2026-04-22 16:08 39.45511 2.87220 10391 ft 317 kts 94°
2026-04-22 16:09 39.45295 2.90158 10610 ft 340 kts 94°
2026-04-22 16:09 39.45069 2.93296 10919 ft 357 kts 94°
2026-04-22 16:09 39.44840 2.96522 11524 ft 363 kts 94°
2026-04-22 16:09 39.44607 2.99800 12193 ft 368 kts 94°
2026-04-22 16:10 39.44373 3.03067 12859 ft 372 kts 94°
2026-04-22 16:10 39.44128 3.06463 13548 ft 376 kts 94°
2026-04-22 16:10 39.43887 3.09803 14167 ft 380 kts 94°
2026-04-22 16:10 39.43638 3.13226 14754 ft 384 kts 94°
2026-04-22 16:11 39.43384 3.16725 15348 ft 388 kts 94°
2026-04-22 16:11 39.43145 3.20164 15925 ft 391 kts 91°
2026-04-22 16:11 39.43228 3.23678 16512 ft 393 kts 81°
2026-04-22 16:11 39.43821 3.27132 17072 ft 394 kts 69°
2026-04-22 16:12 39.44909 3.30382 17623 ft 395 kts 58°
2026-04-22 16:12 39.46321 3.33450 18178 ft 398 kts 56°
2026-04-22 16:12 39.47754 3.36539 18677 ft 402 kts 57°
2026-04-22 16:12 39.49192 3.39657 19180 ft 405 kts 57°
2026-04-22 16:13 39.50640 3.42803 19695 ft 408 kts 57°
2026-04-22 16:13 39.52095 3.45970 20215 ft 410 kts 57°
2026-04-22 16:13 39.53557 3.49156 20744 ft 413 kts 57°
2026-04-22 16:13 39.55026 3.52366 21269 ft 415 kts 57°
2026-04-22 16:14 39.56499 3.55597 21781 ft 418 kts 57°
2026-04-22 16:14 39.57979 3.58851 22279 ft 420 kts 57°
2026-04-22 16:14 39.59469 3.62126 22759 ft 423 kts 56°
2026-04-22 16:14 39.60970 3.65416 23231 ft 425 kts 56°
2026-04-22 16:15 39.62481 3.68726 23671 ft 428 kts 56°
2026-04-22 16:15 39.64002 3.72057 24054 ft 430 kts 56°
2026-04-22 16:15 39.65527 3.75406 24426 ft 432 kts 56°
2026-04-22 16:15 39.67057 3.78773 24796 ft 434 kts 56°
2026-04-22 16:16 39.68592 3.82157 25168 ft 436 kts 56°
2026-04-22 16:16 39.70133 3.85563 25517 ft 438 kts 56°
2026-04-22 16:16 39.71678 3.88980 25865 ft 440 kts 56°
2026-04-22 16:16 39.73229 3.92412 26211 ft 442 kts 56°
2026-04-22 16:17 39.74786 3.95864 26559 ft 443 kts 56°
2026-04-22 16:17 39.76351 3.99332 26911 ft 445 kts 56°
2026-04-22 16:17 39.77917 4.02804 27245 ft 447 kts 56°
2026-04-22 16:17 39.79487 4.06295 27569 ft 448 kts 57°
2026-04-22 16:18 39.81254 4.09616 27882 ft 445 kts 44°
2026-04-22 16:18 39.83531 4.12308 28182 ft 443 kts 36°
2026-04-22 16:18 39.85917 4.14853 28486 ft 444 kts 36°
2026-04-22 16:18 39.88316 4.17396 28784 ft 446 kts 36°
2026-04-22 16:19 39.90728 4.19944 29079 ft 447 kts 36°
2026-04-22 16:19 39.93149 4.22498 29355 ft 449 kts 36°
2026-04-22 16:19 39.95577 4.25064 29643 ft 450 kts 36°
2026-04-22 16:19 39.98013 4.27647 29906 ft 452 kts 36°
2026-04-22 16:20 40.00453 4.30241 30146 ft 454 kts 36°
2026-04-22 16:20 40.02902 4.32852 30352 ft 455 kts 36°
2026-04-22 16:20 40.05351 4.35470 30558 ft 456 kts 36°
2026-04-22 16:20 40.07804 4.38095 30818 ft 455 kts 36°
2026-04-22 16:21 40.10251 4.40712 31109 ft 454 kts 36°
2026-04-22 16:21 40.12691 4.43320 31398 ft 453 kts 35°
2026-04-22 16:21 40.15095 4.45890 31679 ft 452 kts 35°
2026-04-22 16:21 40.17521 4.48488 31974 ft 451 kts 35°
2026-04-22 16:22 40.22356 4.53677 32561 ft 448 kts 35°
2026-04-22 16:22 40.24761 4.56259 32852 ft 447 kts 35°
2026-04-22 16:22 40.27159 4.58837 33162 ft 445 kts 34°
2026-04-22 16:23 40.31925 4.63974 33798 ft 441 kts 34°
2026-04-22 16:23 40.34292 4.66524 34001 ft 440 kts 34°
2026-04-22 16:23 40.36648 4.69069 34043 ft 437 kts 34°
2026-04-22 16:24 40.43669 4.76662 34290 ft 437 kts 34°
2026-04-22 16:24 40.46013 4.79200 34530 ft 436 kts 34°
2026-04-22 16:25 40.48350 4.81732 34772 ft 435 kts 34°
2026-04-22 16:25 40.53007 4.86792 35240 ft 433 kts 34°
2026-04-22 16:25 40.55327 4.89320 35462 ft 433 kts 34°
2026-04-22 16:26 40.57642 4.91842 35676 ft 432 kts 34°
2026-04-22 16:26 40.59953 4.94359 35883 ft 431 kts 34°
2026-04-22 16:26 40.62260 4.96875 36034 ft 430 kts 34°
2026-04-22 16:26 40.64553 4.99379 36044 ft 427 kts 34°
2026-04-22 16:27 40.69120 5.04369 36043 ft 426 kts 34°
2026-04-22 16:27 40.73677 5.09357 36043 ft 426 kts 34°
2026-04-22 16:28 40.78228 5.14355 36043 ft 426 kts 34°
2026-04-22 16:28 40.82785 5.19362 36049 ft 426 kts 34°
2026-04-22 16:29 40.87334 5.24366 36048 ft 426 kts 34°
2026-04-22 16:29 40.91882 5.29384 36050 ft 426 kts 34°
2026-04-22 16:30 40.96423 5.34404 36073 ft 426 kts 34°
2026-04-22 16:30 41.00964 5.39435 36070 ft 425 kts 34°
2026-04-22 16:31 41.05498 5.44467 36063 ft 425 kts 34°
2026-04-22 16:31 41.10027 5.49504 36062 ft 425 kts 34°
2026-04-22 16:32 41.14554 5.54547 36062 ft 425 kts 34°
2026-04-22 16:32 41.19082 5.59598 36066 ft 425 kts 34°
2026-04-22 16:33 41.23602 5.64650 36075 ft 425 kts 34°
2026-04-22 16:33 41.27360 5.68852 36079 ft 424 kts 34°
2026-04-22 16:34 41.31874 5.73918 36074 ft 425 kts 35°
2026-04-22 16:34 41.36400 5.79010 36050 ft 427 kts 35°
2026-04-22 16:35 41.40937 5.84116 36046 ft 428 kts 35°
2026-04-22 16:35 41.45487 5.89240 36051 ft 428 kts 35°
2026-04-22 16:36 41.50037 5.94385 36053 ft 429 kts 35°
2026-04-22 16:36 41.54591 5.99536 36057 ft 429 kts 35°
2026-04-22 16:37 41.59140 6.04701 36059 ft 429 kts 35°
2026-04-22 16:37 41.63688 6.09879 36089 ft 430 kts 35°
2026-04-22 16:38 41.68255 6.15067 36055 ft 432 kts 35°
2026-04-22 16:38 41.72832 6.20289 36052 ft 433 kts 36°
2026-04-22 16:39 41.77420 6.25543 36051 ft 434 kts 36°
2026-04-22 16:39 41.82014 6.30809 36075 ft 435 kts 36°
2026-04-22 16:40 41.86612 6.36091 36088 ft 435 kts 36°
2026-04-22 16:41 41.93503 6.44015 36090 ft 435 kts 36°
2026-04-22 16:41 41.98069 6.49279 36086 ft 436 kts 36°
2026-04-22 16:42 42.02678 6.54596 36081 ft 437 kts 36°
2026-04-22 16:42 42.07296 6.59938 36078 ft 438 kts 36°
2026-04-22 16:43 42.11907 6.65306 36082 ft 439 kts 36°
2026-04-22 16:43 42.16340 6.70979 36083 ft 445 kts 46°
2026-04-22 16:44 42.20108 6.77624 36087 ft 446 kts 48°
2026-04-22 16:44 42.23867 6.84288 36112 ft 446 kts 48°
2026-04-22 16:45 42.27618 6.90969 36102 ft 447 kts 48°
2026-04-22 16:45 42.31378 6.97670 36092 ft 448 kts 48°
2026-04-22 16:46 42.35135 7.04384 36090 ft 448 kts 48°
2026-04-22 16:46 42.38894 7.11110 36091 ft 448 kts 48°
2026-04-22 16:47 42.42652 7.17851 36099 ft 449 kts 48°
2026-04-22 16:47 42.46405 7.24602 36103 ft 449 kts 48°
2026-04-22 16:48 42.50153 7.31360 36105 ft 448 kts 48°
2026-04-22 16:48 42.53897 7.38120 36104 ft 448 kts 48°
2026-04-22 16:49 42.57638 7.44886 36102 ft 448 kts 48°
2026-04-22 16:49 42.61379 7.51657 36102 ft 448 kts 48°
2026-04-22 16:50 42.65110 7.58453 36119 ft 449 kts 48°
2026-04-22 16:50 42.68835 7.65259 36110 ft 449 kts 48°
2026-04-22 16:51 42.72553 7.72060 36109 ft 448 kts 48°
2026-04-22 16:51 42.76277 7.78872 36123 ft 448 kts 47°
2026-04-22 16:52 42.79994 7.85690 36117 ft 448 kts 47°
2026-04-22 16:52 42.83675 7.92464 36118 ft 448 kts 47°
2026-04-22 16:53 42.87382 7.99293 36133 ft 448 kts 47°
2026-04-22 16:53 42.91094 8.06139 36109 ft 450 kts 48°
2026-04-22 16:54 42.94810 8.13015 36111 ft 451 kts 48°
2026-04-22 16:54 42.98525 8.19920 36110 ft 451 kts 48°
2026-04-22 16:55 43.02232 8.26844 36105 ft 452 kts 48°
2026-04-22 16:55 43.05942 8.33770 36110 ft 452 kts 48°
2026-04-22 16:56 43.09659 8.40715 36117 ft 453 kts 47°
2026-04-22 16:56 43.13384 8.47677 36129 ft 454 kts 47°
2026-04-22 16:57 43.17106 8.54658 36118 ft 454 kts 48°
2026-04-22 16:57 43.20824 8.61658 36118 ft 454 kts 48°
2026-04-22 16:58 43.23908 8.67483 36119 ft 454 kts 48°
2026-04-22 16:58 43.28242 8.75691 36128 ft 455 kts 48°
2026-04-22 16:59 43.31955 8.82728 36137 ft 455 kts 47°
2026-04-22 16:59 43.35666 8.89783 36130 ft 455 kts 47°
2026-04-22 17:00 43.39573 8.96561 36126 ft 447 kts 37°
2026-04-22 17:00 43.46544 9.04813 36126 ft 442 kts 33°
2026-04-22 17:01 43.51232 9.10303 36160 ft 443 kts 33°
2026-04-22 17:01 43.55926 9.15818 36140 ft 443 kts 33°
2026-04-22 17:02 43.60615 9.21334 36129 ft 443 kts 33°
2026-04-22 17:02 43.65312 9.26856 36136 ft 444 kts 33°
2026-04-22 17:03 43.70010 9.32387 36132 ft 444 kts 33°
2026-04-22 17:03 43.74708 9.37937 36131 ft 444 kts 33°
2026-04-22 17:04 43.79401 9.43500 36131 ft 444 kts 33°
2026-04-22 17:04 43.84094 9.49081 36165 ft 445 kts 33°
2026-04-22 17:05 43.88788 9.54669 36154 ft 445 kts 33°
2026-04-22 17:05 43.93476 9.60266 36142 ft 445 kts 33°
2026-04-22 17:06 43.98163 9.65867 36121 ft 445 kts 33°
2026-04-22 17:06 44.02848 9.71482 36143 ft 445 kts 32°
2026-04-22 17:07 44.07525 9.77090 36135 ft 444 kts 32°
2026-04-22 17:07 44.12196 9.82710 36126 ft 444 kts 32°
2026-04-22 17:08 44.16860 9.88331 36142 ft 444 kts 32°
2026-04-22 17:08 44.21524 9.93965 36150 ft 443 kts 32°
2026-04-22 17:09 44.26175 9.99602 36147 ft 443 kts 32°
2026-04-22 17:09 44.30823 10.05235 36162 ft 442 kts 32°
2026-04-22 17:10 44.35469 10.10871 36156 ft 442 kts 32°
2026-04-22 17:10 44.40105 10.16523 36157 ft 442 kts 32°
2026-04-22 17:11 44.42421 10.19356 35983 ft 443 kts 32°
2026-04-22 17:11 44.44746 10.22201 35198 ft 446 kts 32°
2026-04-22 17:11 44.47093 10.25071 34351 ft 449 kts 31°
2026-04-22 17:11 44.49452 10.27951 33370 ft 451 kts 31°
2026-04-22 17:12 44.51813 10.30837 32639 ft 448 kts 31°
2026-04-22 17:12 44.54140 10.33704 32119 ft 443 kts 31°
2026-04-22 17:12 44.56409 10.36507 31519 ft 439 kts 30°
2026-04-22 17:12 44.58689 10.39325 30948 ft 435 kts 30°
2026-04-22 17:13 44.60956 10.42118 30378 ft 432 kts 30°
2026-04-22 17:13 44.63209 10.44892 29749 ft 430 kts 30°
2026-04-22 17:13 44.65445 10.47649 29198 ft 425 kts 30°
2026-04-22 17:13 44.67654 10.50379 28643 ft 421 kts 30°
2026-04-22 17:14 44.69840 10.53083 28097 ft 416 kts 30°
2026-04-22 17:14 44.72001 10.55762 27563 ft 413 kts 31°
2026-04-22 17:14 44.74143 10.58418 27034 ft 409 kts 31°
2026-04-22 17:14 44.76268 10.61053 26510 ft 405 kts 31°
2026-04-22 17:15 44.77691 10.62818 26172 ft 402 kts 31°
2026-04-22 17:15 44.80453 10.66248 25512 ft 397 kts 32°
2026-04-22 17:15 44.82512 10.68815 25033 ft 394 kts 32°
2026-04-22 17:15 44.84554 10.71363 24564 ft 391 kts 33°
2026-04-22 17:16 44.86583 10.73894 24082 ft 388 kts 33°
2026-04-22 17:16 44.88596 10.76401 23631 ft 385 kts 34°
2026-04-22 17:16 44.90594 10.78891 23127 ft 381 kts 35°
2026-04-22 17:16 44.92568 10.81353 22684 ft 376 kts 35°
2026-04-22 17:17 44.94512 10.83785 22241 ft 372 kts 36°
2026-04-22 17:17 44.96432 10.86191 21802 ft 367 kts 36°
2026-04-22 17:17 44.98334 10.88579 21359 ft 363 kts 36°
2026-04-22 17:17 45.00215 10.90943 20913 ft 360 kts 37°
2026-04-22 17:18 45.02078 10.93286 20472 ft 357 kts 37°
2026-04-22 17:18 45.03923 10.95609 20023 ft 354 kts 37°
2026-04-22 17:18 45.05753 10.97916 19581 ft 351 kts 38°
2026-04-22 17:18 45.07569 11.00204 19124 ft 349 kts 38°
2026-04-22 17:19 45.10565 11.03981 18376 ft 345 kts 39°
2026-04-22 17:19 45.14123 11.08467 17467 ft 339 kts 39°
2026-04-22 17:20 45.17600 11.12868 16614 ft 332 kts 39°
2026-04-22 17:20 45.21020 11.17203 15781 ft 327 kts 40°
2026-04-22 17:21 45.22714 11.19350 15366 ft 325 kts 40°
2026-04-22 17:21 45.26070 11.23605 14550 ft 322 kts 40°
2026-04-22 17:22 45.29374 11.27863 13648 ft 320 kts 45°
2026-04-22 17:22 45.30805 11.30277 13207 ft 318 kts 49°
2026-04-22 17:22 45.33582 11.35113 12337 ft 313 kts 49°
2026-04-22 17:23 45.34957 11.37500 11902 ft 311 kts 49°
2026-04-22 17:23 45.37678 11.42227 11030 ft 307 kts 49°
2026-04-22 17:23 45.39023 11.44564 10600 ft 304 kts 49°
2026-04-22 17:24 45.40329 11.46835 10411 ft 295 kts 49°
2026-04-22 17:24 45.41603 11.49051 10296 ft 284 kts 49°
2026-04-22 17:24 45.42855 11.51204 10087 ft 275 kts 45°
2026-04-22 17:24 45.44330 11.52779 9852 ft 267 kts 29°
2026-04-22 17:25 45.45936 11.54096 9448 ft 266 kts 32°
2026-04-22 17:25 45.47343 11.55798 9046 ft 267 kts 48°
2026-04-22 17:25 45.48354 11.58014 8649 ft 268 kts 64°
2026-04-22 17:25 45.49026 11.60499 8239 ft 268 kts 68°
2026-04-22 17:26 45.49682 11.62982 7841 ft 268 kts 68°
2026-04-22 17:26 45.50343 11.65460 7434 ft 267 kts 68°
2026-04-22 17:26 45.51003 11.67927 7039 ft 266 kts 68°
2026-04-22 17:26 45.51660 11.70391 6642 ft 265 kts 69°
2026-04-22 17:27 45.52312 11.72842 6222 ft 264 kts 69°
2026-04-22 17:27 45.52962 11.75288 5820 ft 263 kts 69°
2026-04-22 17:27 45.53606 11.77710 5443 ft 260 kts 69°
2026-04-22 17:27 45.54249 11.80108 5032 ft 259 kts 68°
2026-04-22 17:28 45.54906 11.82493 4615 ft 257 kts 68°
2026-04-22 17:28 45.55563 11.84860 4207 ft 256 kts 68°
2026-04-22 17:28 45.56217 11.87212 3864 ft 252 kts 68°
2026-04-22 17:28 45.56853 11.89505 3607 ft 246 kts 68°
2026-04-22 17:29 45.57475 11.91749 3355 ft 240 kts 68°
2026-04-22 17:29 45.58073 11.93950 3105 ft 236 kts 69°
2026-04-22 17:29 45.58643 11.96093 2989 ft 225 kts 70°
2026-04-22 17:29 45.59172 11.98118 2938 ft 213 kts 69°
2026-04-22 17:30 45.59692 12.00072 2752 ft 207 kts 69°
2026-04-22 17:30 45.60200 12.01973 2442 ft 202 kts 69°
2026-04-22 17:30 45.60687 12.03793 2168 ft 190 kts 69°
2026-04-22 17:30 45.61143 12.05497 1917 ft 177 kts 70°
2026-04-22 17:31 45.61560 12.07057 1712 ft 161 kts 70°
2026-04-22 17:31 45.61956 12.08522 1466 ft 153 kts 70°
2026-04-22 17:31 45.62326 12.09930 1285 ft 152 kts 71°
2026-04-22 17:31 45.62702 12.11338 1082 ft 150 kts 71°
2026-04-22 17:32 45.63074 12.12723 882 ft 147 kts 72°
2026-04-22 17:32 45.63443 12.14076 693 ft 145 kts 71°
2026-04-22 17:32 45.63800 12.15422 480 ft 145 kts 72°
2026-04-22 17:32 45.64152 12.16756 308 ft 144 kts 72°
2026-04-22 17:33 45.64383 12.17639 167 ft 143 kts 73°
2026-04-22 17:33 45.64813 12.19274 64 ft 106 kts 69°
2026-04-22 17:33 45.65012 12.20014 59 ft 48 kts 68°
2026-04-22 17:33 45.65134 12.20221 59 ft 17 kts 28°
2026-04-22 17:34 45.65221 12.20279 59 ft 12 kts 24°
2026-04-22 17:34 45.65287 12.20338 59 ft 10 kts 49°
2026-04-22 17:34 45.65313 12.20420 60 ft 8 kts 69°
2026-04-22 17:34 45.65331 12.20489 62 ft 5 kts 69°
2026-04-22 17:35 45.65341 12.20524 59 ft 3 kts 69°
2026-04-22 17:35 45.65348 12.20551 58 ft 3 kts 65°
2026-04-22 17:35 45.65376 12.20557 57 ft 5 kts 342°
2026-04-22 17:35 45.65405 12.20540 56 ft 3 kts 339°
2026-04-22 17:36 45.65414 12.20535 59 ft 0 kts 339°